Location: ???????
(54.7123°N, 39.0709°E)
Time: 20:51:50
(UTC+00:00)

Daily predictions for brighter satellites

Satellite Brightness Start Highest point End
(mag) Time Altitude Azimuth Time Altitude Azimuth Time Altitude Azimuth
GP-B 3.4 18:54:42 10° N 18:59:00 51° E 19:03:15 10° SSE
Cosmos 2344 4.0 18:51:34 10° NW 18:59:17 86° NE 19:09:30 10° SE
ATLAS 3B R/B 4.1 18:52:57 10° WNW 19:00:30 47° NNE 19:08:01 10° E
Cosmos 1933 Rocket 3.8 18:56:48 10° NNW 19:01:11 70° W 19:05:29 10° S
Lacrosse 4 Rocket 3.5 19:01:57 10° WNW 19:04:55 19° WSW 19:07:54 10° SSW
Cosmos 1437 Rocket 2.7 19:02:39 10° SSW 19:06:12 78° WNW 19:09:50 10° NNE
Cosmos 1733 Rocket 3.7 19:05:18 10° N 19:09:31 44° ENE 19:13:41 10° SE
SL-16 R/B 3.1 19:06:02 10° NW 19:11:21 42° WSW 19:16:38 10° S
Cosmos 1515 Rocket 4.0 19:07:40 10° SSW 19:12:04 65° WNW 19:16:31 10° N
Cosmos 1869 Rocket 3.7 19:11:18 10° NNW 19:15:41 75° W 19:20:01 10° S
Cosmos 540 Rocket 3.9 19:11:47 10° NNW 19:16:51 55° ENE 19:21:51 10° SE
Cosmos 2263 Rocket 2.2 19:11:20 10° SSW 19:17:00 74° ESE 19:22:42 10° NE
Cosmos 921 Rocket 4.4 19:13:01 10° SW 19:17:07 42° WNW 19:21:19 10° NNE
Cosmos 1703 4.2 19:14:29 10° SSE 19:17:27 27° E 19:20:27 10° NNE
Cosmos 2227 Rocket 2.6 19:12:13 10° SW 19:17:50 69° NW 19:23:31 10° NNE
Cosmos 407 Rocket 4.4 19:14:13 10° SSE 19:18:37 30° ESE 19:23:01 10° NE
Ariane Rocket 3.8 19:15:05 10° S 19:20:00 49° W 19:24:57 10° NNW
SL-4 R/B 2.9 19:16:56 10° SSW 19:20:25 27° SSE 19:23:51 10° E
NOSS 3-1 (A) 4.1 19:14:03 10° NW 19:20:42 75° NE 19:28:59 10° ESE
NOSS 2-1 (C) 3.8 19:22:03 10° NW 19:25:10 47° NNE 19:29:01 10° ESE
Cosmos 2233 Rocket 4.2 19:19:20 10° NNW 19:25:40 75° W 19:31:58 10° S
Okean 1-7 4.4 19:22:44 10° SE 19:26:00 23° E 19:29:18 10° NE
ALOS 2 4.2 19:25:45 10° ESE 19:29:23 26° ENE 19:33:01 10° N
ATLAS 2AS CENTAUR R/B 4.4 19:25:42 10° SE 19:29:25 15° ESE 19:33:05 10° ENE
Cosmos 1943 3.3 19:24:03 10° NW 19:29:46 74° WSW 19:35:21 10° SSE
ASTEX 1 4.1 19:25:57 10° NNE 19:30:37 39° E 19:35:06 11° SSE
NOSS 2-1 (E) 3.8 19:29:46 10° NW 19:32:56 49° NE 19:36:51 10° ESE
Cosmos 1818 4.2 19:27:53 10° WSW 19:33:18 61° NW 19:38:44 10° NE
Cosmos 2292 Rocket 3.3 19:31:18 12° SSE 19:33:48 38° E 19:36:39 10° NNE
Okean O Rocket 4.5 19:33:57 10° W 19:34:43 10° W 19:35:28 10° WNW
IRIDIUM 104 4.5 19:34:35 10° S 19:39:43 63° E 19:44:54 10° N
Cosmos 1269 Rocket 4.1 19:35:37 10° SSW 19:40:54 89° ESE 19:46:14 10° NNE
RESURS DK-1 3.4 19:37:31 10° SW 19:41:25 49° NW 19:45:21 10° NNE
Cosmos 468 Rocket 4.3 19:36:24 10° NNW 19:41:33 62° ENE 19:46:34 10° SE
COBE Rocket 3.9 19:37:00 10° NNE 19:42:06 78° ESE 19:47:01 10° S
Meteor 2-16 Rocket 4.5 19:36:41 10° S 19:42:47 88° E 19:48:55 10° NNE
Okean 2 3.2 19:41:12 10° S 19:45:06 78° E 19:49:01 10° NNE
DELTA 2 DEB (DPAF) 3.9 19:41:47 10° NNE 19:45:40 64° ESE 19:49:32 10° S
Cosmos 1862 Rocket 3.9 19:42:28 11° S 19:46:34 50° E 19:50:50 10° NNE
Cosmos 1953 3.3 19:43:46 10° NNW 19:47:15 37° W 19:50:45 10° SSW
Cosmos 2219 3.4 19:41:36 10° SW 19:47:22 83° WNW 19:53:11 10° NNE
Cosmos 1892 2.6 19:46:24 14° SSE 19:48:46 42° E 19:51:39 10° NNE
IRIDIUM 114 4.4 19:43:40 10° S 19:48:51 74° E 19:54:05 10° N
SeaSat 1 4.0 19:44:41 10° E 19:48:59 31° NE 19:53:17 10° NNW
USA 290 2.6 19:46:03 10° SW 19:49:12 63° WNW 19:52:26 10° NNE
Cosmos 1603 3.7 19:45:17 10° NNW 19:50:56 87° WSW 19:56:14 12° SSE
USA 59 Rocket -0.3 19:48:55 10° NW 19:52:12 76° NE 19:56:26 10° SE
Spot 4 4.4 19:47:41 11° SE 19:52:14 50° ENE 19:56:55 10° N
SJ 16-02 3.5 19:51:56 10° ESE 19:53:42 12° E 19:55:30 10° ENE
Cosmos 2082 3.8 19:48:50 10° SSW 19:54:34 88° ESE 20:00:21 10° NNE
USA 305 2.1 19:51:16 10° W 19:54:59 84° S 19:57:54 10° E
IRIDIUM 103 4.4 19:52:47 10° S 19:58:00 86° E 20:03:16 10° N
CZ-4C R/B 3.2 19:55:36 10° NNE 19:58:47 48° E 20:01:23 14° S
Cosmos 1763 Rocket 3.7 19:59:02 10° NNW 20:04:07 61° WSW 20:08:33 13° S
CZ-2C R/B 4.0 20:03:21 10° NNE 20:07:48 52° E 20:11:43 13° S
USA 307 3.5 20:05:43 10° SSW 20:08:44 27° SE 20:12:04 10° E
Geosat 4.0 20:04:34 10° NE 20:09:37 78° ESE 20:14:38 10° SSW
ARIANE 5 R/B 2.7 20:08:51 14° SSE 20:12:40 89° WSW 20:17:12 10° NNW
Okean 3 3.9 20:09:45 10° SSW 20:13:47 58° WNW 20:17:50 10° N
Cosmos 2227 4.3 20:10:29 10° SSW 20:16:00 62° ESE 20:21:34 10° NE
MetOp-A 3.7 20:13:45 14° SSE 20:17:46 79° WSW 20:22:09 10° NNW
Cosmos 1844 Rocket 2.9 20:20:02 10° SSW 20:25:33 58° ESE 20:31:08 10° NE
Cosmos 1140 Rocket 4.1 20:23:32 10° SW 20:28:36 57° WNW 20:33:40 10° NNE
Cosmos 1782 Rocket 4.1 20:28:05 10° N 20:32:26 51° ENE 20:36:05 14° SSE
Cosmos 1703 Rocket 3.9 20:31:00 16° SSE 20:34:15 50° E 20:38:25 10° NNE
Cosmos 1606 3.9 20:34:06 10° NNE 20:36:40 24° ENE 20:39:03 11° SE
Cosmos 1844 3.7 20:34:21 11° SSW 20:39:39 64° ESE 20:45:10 10° NE
Cosmos 1707 Rocket 4.1 20:35:38 10° SSW 20:39:50 53° WNW 20:44:04 10° N
Aureole 3 Rocket 3.5 20:38:52 10° NNW 20:41:52 37° W 20:44:47 14° SSW
Cosmos 1271 Rocket 2.5 20:39:23 17° S 20:42:03 71° E 20:45:39 10° NNE
NOSS 2-1 (D) 3.6 20:41:48 10° WNW 20:45:06 46° SW 20:48:13 16° SSE
Cosmos 2228 Rocket 3.7 20:41:10 10° SSW 20:45:31 53° WNW 20:49:53 10° N
ATLAS 3B R/B 3.2 20:44:20 10° NW 20:52:19 79° NE 21:00:03 10° SE
Cosmos 676 Rocket 4.3 20:51:57 15° S 20:56:08 55° ESE 21:01:15 10° NNE
SL-4 R/B 2.0 20:53:58 10° WSW 20:57:58 52° S 21:01:50 10° E
Cosmos 407 Rocket 4.1 20:55:15 10° SW 21:00:16 55° WNW 21:05:19 10° NNE
Cosmos 2263 Rocket 4.0 20:56:19 10° WSW 21:01:26 33° NW 21:06:35 10° NNE
Okean 1-7 3.7 20:58:56 11° SSW 21:02:50 46° WNW 21:06:51 10° N
Cosmos 1833 Rocket 2.9 20:59:19 10° NNW 21:04:58 75° NE 21:10:35 10° SE
ALOS 2 3.0 21:02:11 17° S 21:05:28 53° W 21:09:48 10° NNW
Meteor 1-24 Rocket 3.9 21:01:26 15° S 21:06:24 73° E 21:12:15 10° NNE
Cosmos 2279 Rocket 4.4 21:00:17 10° N 21:06:25 59° ENE 21:12:03 12° SSE
Tsikada Rocket 4.1 21:04:34 15° S 21:09:43 72° E 21:16:01 10° NNE
Cosmos 1908 Rocket 4.3 21:06:29 10° NNW 21:10:36 42° W 21:13:54 15° SSW
NOSS 3-1 (A) 4.5 21:04:52 10° NW 21:11:31 44° SW 21:18:18 14° S
NOSS 2-1 (C) 4.3 21:11:02 10° WNW 21:14:10 30° SW 21:16:32 18° S
Cosmos 1328 3.8 21:12:30 19° S 21:14:52 56° E 21:18:26 10° NNE
Cosmos 1954 Rocket 4.0 21:12:50 12° SSW 21:17:42 87° WNW 21:22:55 10° NNE
Cosmos 371 Rocket 4.2 21:14:55 16° SSE 21:18:12 35° ESE 21:22:35 10° NE
ATLAS 2AS CENTAUR R/B 2.9 21:12:27 12° SSW 21:18:58 55° SE 21:25:41 10° NE
Cosmos 2251 Rocket 4.1 21:15:14 10° SW 21:20:30 59° WNW 21:25:50 10° NNE
Cosmos 2034 Rocket 4.5 21:15:39 10° NNW 21:21:39 52° W 21:26:51 14° SSW
NOSS 2-1 (E) 4.3 21:18:53 10° WNW 21:22:01 29° SW 21:24:23 18° S
Cosmos 2242 Rocket 4.3 21:18:50 16° SSE 21:22:05 44° E 21:26:18 10° NNE
Cosmos 841 Rocket 4.0 21:17:21 10° NW 21:22:25 49° WSW 21:26:17 17° S
USA 305 1.6 21:20:15 10° W 21:23:31 69° SSW 21:25:51 10° ESE
Cosmos 1190 Rocket 4.3 21:19:14 10° SW 21:24:29 67° WNW 21:29:46 10° NNE
SeaSat 1 2.4 21:21:53 14° SSE 21:26:05 71° WSW 21:31:02 10° NW
Landsat 5 4.3 21:22:42 10° N 21:26:49 47° WNW 21:30:39 11° SW
H-2A R/B 3.4 21:27:17 10° SE 21:30:37 35° ENE 21:33:58 10° N
SJ 16-02 1.3 21:27:45 16° SSW 21:31:08 80° ESE 21:35:29 10° NNE
Meteor 2-5 Rocket 3.9 21:27:41 15° SSW 21:32:47 82° WNW 21:38:46 10° NNE
TIMED 4.4 21:33:57 16° SSW 21:37:16 80° ESE 21:41:34 10° NNE
USA 307 2.5 21:34:40 10° WSW 21:38:24 66° SSE 21:42:21 10° E
CZ-2C R/B 3.2 21:34:35 10° SE 21:39:42 54° ENE 21:44:57 10° N
Cosmos 1814 Rocket 4.1 21:34:21 10° NNW 21:39:43 82° ENE 21:45:00 10° SSE
USA 59 Rocket 1.5 21:38:16 10° W 21:40:59 19° SW 21:42:42 16° SSW
Cosmos 2082 Rocket 3.3 21:35:54 10° NNW 21:41:24 46° NE 21:46:52 10° ESE
Cosmos 1943 Rocket 3.9 21:38:51 10° SE 21:42:41 20° E 21:46:31 10° ENE
Cosmos 1850 Rocket 4.3 21:40:56 16° S 21:44:52 56° ESE 21:49:55 10° NNE
Cosmos 2278 Rocket 3.7 21:45:35 11° SSE 21:49:47 25° ESE 21:54:17 10° NE
SL-12 R/B(2) 4.5 21:42:46 10° SSW 21:50:48 70° SE 22:00:50 10° NE
Cosmos 1634 Rocket 4.3 21:44:57 10° NNW 21:51:05 56° W 21:56:09 15° SSW
Cosmos 304 Rocket 3.9 21:48:20 17° S 21:51:56 62° ESE 21:56:39 10° NNE
Cosmos 968 Rocket 3.5 21:53:35 16° SSW 21:57:48 73° ESE 22:03:04 10° NNE
Cosmos 1025 Rocket 4.5 21:56:46 10° SSE 22:00:23 29° E 22:04:04 10° NNE
Cosmos 2151 Rocket 3.7 21:57:55 10° N 22:02:22 80° ENE 22:06:15 14° SSE
Okean 2 Rocket 3.3 21:59:57 10° N 22:04:27 70° ENE 22:08:31 12° SSE
Landsat 4 3.2 22:02:38 16° SSE 22:04:51 68° ENE 22:07:45 10° N
IDEFIX/ARIANE 42P 4.4 22:01:37 10° NE 22:05:43 23° E 22:09:46 10° SE
Okean 1 Rocket 3.6 22:01:51 10° N 22:06:17 58° ENE 22:10:40 10° SSE
USA 229 DEB 4.0 22:00:19 10° NW 22:07:32 65° SW 22:15:29 10° SSE
USA 229 4.0 22:00:25 10° NW 22:07:38 65° SW 22:15:35 10° SSE
SL-24 R/B - RUBIN 2 4.2 22:03:26 10° NW 22:08:08 41° WSW 22:11:40 14° S
Cosmos 1606 3.6 22:07:07 10° NW 22:09:41 25° W 22:11:23 15° SW
Cosmos 1844 Rocket 4.0 22:04:24 10° WSW 22:09:43 39° NW 22:15:02 10° NNE
Timation 2 Rocket 4.2 22:06:00 15° S 22:10:47 52° ESE 22:16:36 10° NE
Cosmos 1378 Rocket 3.7 22:07:51 16° S 22:11:18 71° E 22:15:40 10° NNE
In-Cosmos 22 Rocket 4.5 22:15:42 14° S 22:20:36 69° E 22:26:23 10° NNE
Cosmos 1340 Rocket 2.7 22:17:40 10° NNW 22:21:31 68° W 22:24:37 15° S
Cosmos 1869 3.1 22:17:57 10° NNW 22:21:40 74° W 22:24:36 15° S
H-2A R/B 4.3 22:20:19 10° NE 22:22:40 15° E 22:25:00 10° SE
Meteor 1-21 Rocket 4.5 22:18:17 14° S 22:23:25 72° E 22:29:14 10° NNE
Nadezhda 4 Rocket 4.2 22:20:01 13° S 22:25:34 73° E 22:31:52 10° NNE
USA 234 3.8 22:24:49 10° ENE 22:31:01 43° SE 22:36:42 12° SSW
CZ-2C R/B 3.2 22:28:38 10° NNE 22:34:07 75° ESE 22:38:42 13° S
SL-4 R/B 2.1 22:31:46 10° W 22:35:42 49° SSW 22:39:26 10° ESE
Cosmos 332 Rocket 4.2 22:34:27 14° S 22:38:31 55° ESE 22:43:14 10° NNE
Cosmos 158 Rocket 4.0 22:34:45 10° NNW 22:39:46 59° WSW 22:44:38 10° S
Cosmos 1741 Rocket 4.3 22:36:52 11° SW 22:41:54 65° WNW 22:47:13 10° NNE
ATLAS 3B R/B 3.5 22:35:30 10° NW 22:42:42 40° WSW 22:49:38 10° S
Meteor 2-1 Rocket 4.4 22:38:45 10° NNW 22:44:44 86° ENE 22:50:43 10° SSE
Cosmos 1833 Rocket 3.9 22:43:50 10° NW 22:48:23 26° WSW 22:52:21 12° SSW
Cosmos 1455 Rocket 3.2 22:45:05 10° N 22:49:28 73° ENE 22:53:47 10° SSE
Resurs 1-4 Rocket 3.9 22:46:23 10° NE 22:50:39 24° E 22:54:54 10° SE
USA 305 2.9 22:49:37 10° W 22:51:25 17° SW 22:51:25 17° SW
Cosmos 1461 4.5 22:47:52 10° NW 22:51:42 38° NNE 22:55:32 10° E
Cosmos 2026 Rocket 4.3 22:47:49 10° S 22:54:02 68° E 23:00:12 10° NNE
Cosmos 1812 2.2 22:54:04 10° NNW 22:57:16 89° E 23:00:27 10° S
Cosmos 371 Rocket 4.1 22:53:43 10° SW 22:58:22 45° NW 23:03:02 10° NNE
Cosmos 773 Rocket 4.2 22:54:58 10° NNW 23:00:11 75° ENE 23:05:25 10° SSE
Cosmos 1570 Rocket 4.1 22:56:06 10° NNW 23:01:27 72° WSW 23:06:45 10° SSE
SeaSat 1 4.3 23:01:37 10° SW 23:04:17 15° WSW 23:07:00 10° WNW
H-2A R/B 3.4 23:02:26 13° SSW 23:05:03 26° W 23:08:09 10° NW
BREEZE M DEB (TANK) 4.2 23:05:26 10° SSE 23:06:11 11° SE 23:07:00 10° SE
Cosmos 1515 3.3 23:04:48 10° N 23:07:30 57° ENE 23:10:10 10° SSE
USA 307 2.6 23:04:31 10° W 23:08:27 81° S 23:12:21 10° E
Cosmos 2084 3.2 23:05:11 10° NW 23:09:13 80° SW 23:13:08 10° SE
SJ 16-02 3.4 23:06:36 10° W 23:09:51 20° NW 23:13:07 10° N
ATLAS 2AS CENTAUR R/B 3.3 23:02:58 10° WSW 23:09:57 60° NNW 23:16:45 10° NE
USA 81 4.1 23:06:27 11° S 23:11:38 78° W 23:16:56 10° N
Cosmos 1674 Rocket 4.2 23:07:46 11° SW 23:11:43 44° WNW 23:15:55 10° N
Cosmos 2221 Rocket 3.9 23:08:21 12° SSW 23:12:25 58° WNW 23:16:49 10° N
Cosmos 2208 Rocket 4.0 23:07:55 10° NNW 23:13:06 76° WSW 23:18:15 10° SSE
CZ-2D R/B 3.5 23:09:12 10° NNE 23:14:06 34° E 23:18:54 10° SSE
CZ-2C R/B 3.6 23:15:41 10° SSW 23:20:13 31° W 23:24:58 10° NNW
Cosmos 292 Rocket 4.1 23:18:15 10° S 23:22:59 62° ESE 23:27:45 10° NNE
SL-19 R/B 4.3 23:17:50 10° NNE 23:23:28 83° WNW 23:29:04 10° SSW
COSMOS 2406 3.3 23:19:05 10° NW 23:24:49 70° WSW 23:30:32 10° SSE
Cosmos 2082 Rocket 2.6 23:20:06 10° NW 23:25:32 47° WSW 23:30:59 10° S
Cosmos 1943 Rocket 2.2 23:20:09 10° SSW 23:25:40 89° ESE 23:31:15 10° NNE
ADEOS II 3.6 23:22:19 10° NNE 23:26:58 31° E 23:31:35 10° SSE
Meteor 1-11 4.5 23:24:07 10° SSW 23:29:51 66° WNW 23:35:42 10° N
ATLAS 5 CENTAUR R/B 2.4 23:29:09 10° S 23:31:43 23° ESE 23:34:30 10° ENE
Cosmos 2278 Rocket 2.3 23:27:38 10° SW 23:33:19 78° NW 23:39:02 10° NNE
Cosmos 1544 Rocket 3.9 23:29:41 10° N 23:34:00 68° ENE 23:38:16 10° SSE
Cosmos 1025 Rocket 3.8 23:33:45 10° SW 23:37:44 39° WNW 23:41:47 10° N
MOZ.5/SAFIR/RUBIN 5/SL-8 4.1 23:36:53 10° S 23:41:19 49° W 23:45:48 10° NNW
IDEFIX/ARIANE 42P 2.7 23:40:29 10° NNE 23:45:43 73° WNW 23:50:55 10° SSW
Meteor 1-27 4.4 23:42:43 10° NNW 23:48:32 68° W 23:54:19 10° S
SAR-Lupe-3 4.1 23:46:53 10° SSE 23:49:48 79° ENE 23:52:45 10° NNW
Cosmos 2098 Rocket 2.8 23:46:10 10° NNW 23:49:50 49° W 23:52:56 10° S
H-2A R/B 4.4 23:47:13 10° NE 23:51:01 20° E 23:54:43 10° SE
MSX 4.0 23:46:32 10° NNE 23:52:16 74° WNW 23:57:58 10° SSW
